Weather in Rakushino

Russia / Novgorod Oblast     58°03′31″N   32°40′08″E
temp.,
°C
wind,
m/s
gust,
m/s
humid.,
%
clouds,
%
prec.,
mm/h
press.,
hPa
HPBL,
m
17 september, fri
fri1700:00+5nne118095 0.0 102120
03:00+5ene1285100 0.0 102166
06:00+3ene2487100 0.0 1021144
09:00+5e247567 0.0 1021321
12:00+10e354914 0.0 10211493
15:00+11ene344557 0.0 10211694
18:00+9ene37595 0.0 1022312
21:00+4ene26829 0.0 1024111
18 september, sat
sat1800:00+3e27815 0.0 1024127
03:00+2e248331 0.0 102581
06:00+2e258310 0.0 102679
09:00+6e377244 0.0 1026382
12:00+10e475218 0.0 10251374
15:00+12e464947 0.0 10241545
18:00+9ene496295 0.0 1024708
21:00+4ene4127674 0.0 1025423
19 september, sun
sun1900:00+3e41280100 0.0 1026365
03:00+3ene41280100 0.0 1025384
06:00+2ene41281100 0.0 1025410
09:00+5e41270100 0.0 1026613
12:00+8e51058100 0.0 10251067
15:00+9e51057100 0.0 10241170
18:00+8e51160100 0.0 10241092
21:00+6ene51268100 0.0 1025911
20 september, mon
mon2000:00+5ene51371100 0.0 1025822
03:00+4ene51377100 0.0 1024753
06:00+4ene51480100 0.0 1024730
09:00+4ene6147699 0.0 1024722
12:00+8ene6126398 0.0 10241003
15:00+9ene6125791 0.0 10221202
18:00+7ene6136294 0.0 10221166
21:00+6ene61366100 0.0 10211028
21 september, tue
tue2100:00+5ene51270100 0.0 10201001
03:00+5ene51278100 0.0 1018938
06:00+4ene41296100 0.5 1017832
09:00+5ene51294100 1.9 1016805
12:00+5e51294100 0.9 1015660
15:00+6ene41095100 1.6 1015587
18:00+6e3996100 2.3 1015503
21:00+6e389796 2.7 1015384